LogoCoinalyze
    Ad-Free Version ホーム マーケット一覧 資金調達率一覧
    先物データ
    • 集計データ (コイン一覧)
    • 個別チャート
    • 全体チャート
    アラート
    TA
    Bitcoin Ethereum BNB Ripple Tron ZCash Dogecoin Monero UNUS SED LEO Chainlink Cardano Stellar Lumens Bitcoin Cash Litecoin Hedera Cronos Polkadot Ethereum Classic Algorand Cosmos Quant VeChain Dash Bitcoin SV BitTorrent Terra Decred Tezos Iota The Graph THETA Decentraland NEO Chiliz MultiversX Basic Attention Token Golem Horizen Qtum 0x DigiByte Beam RIF Token FTX Token Holo FUNToken Ontology Zilliqa Siacoin Nano aelf Ravencoin Enjin Coin Mask Network Verge WINk Status Waves IoTeX iExec RLC Power Ledger Steem Kyber Network Crystal Lisk Ark IOST WOO Network Ardor WAX Icon Storj Wanchain Loopring Bitcoin Diamond AdEx Bitcoin Gold Augur OmiseGO NEM MonaCoin BitShares Ren V Systems Komodo Nuls Mithril SOLVE Maker Aion EOS Nebulas HedgeTrade Bread Fetch.ai TomoChain Polygon Fantom Waltonchain GXChain Bytom Metaverse ETP MaidSafeCoin QASH
    注文する:
    その他
    • API
    • ローソク足パターン
    • 寄付する
    • お問い合わせ
    • サイトマップ
    • Privacy Policy
    • Disclaimer
    • Theme:
    日本語
    • English
    • Français
    • Русский
    • Deutsch
    • Türkçe
    • Nederlands
    • Português (BR)
    • Español
    • 한국어
    • 简体中文
     
    ログイン / サインアップ
    Markets/ Pepe/ PEPE to AUD/ PEPEAUD Kraken
    Trades
    WL
    チャット
    統計
    ニュース
    ⦷
    AAA
    0.000004860 39718069.95687000 08:41:42
    0.000005129 3804288.00000000 05:06:21
    0.000005017 1944608.00000000 04:14:11
    0.000004912 13847620.00000000 12:14:35
    0.000005037 888888.00000000 09:19:06
    0.000004890 1135018.00000000 05:36:01
    0.000004708 98263424.34721000 00:46:05
    0.000004709 13159014.65279000 00:46:05
    0.000005320 1879699.24812000 17:19:07
    0.000005023 39002580.00000000 07:49:09
    0.000005233 1080102.00000000 03:37:15
    0.000005016 14837141.00000000 01:20:06
    0.000005121 14837141.57999000 23:42:56
    0.000005249 14837141.58000000 23:42:56
    0.000005071 229179.22000000 23:42:39
    0.000005072 14166403.78548000 23:42:39
    0.000005121 1250019.84000000 23:42:39
    0.000005249 1250019.84000000 23:42:27
    0.000005248 2825448.48000000 23:42:27
    0.000005248 11570134.53000000 23:42:27
    0.000005051 406132.75000000 23:42:11
    0.000005052 16007739.50910000 23:42:11
    0.000005250 2825448.48000000 23:41:59
    0.000005250 13588423.78000000 23:41:59
    0.000005081 17221031.49000000 23:41:42
    0.000005248 17221031.49000000 23:41:30
    0.000005080 1390432.00000000 23:33:46
    0.000005249 920350.00000000 21:56:35
    0.000005028 1989284.05000000 20:53:10
    0.000005054 1979805.97901000 19:10:10
    0.000005042 4004999.88500000 16:18:21
    0.000005051 2483605.17000000 14:11:35
    0.000005052 25229730.79968000 14:11:35
    0.000005106 1958480.21935000 07:58:11
    0.000005106 1958480.21935000 07:56:26
    0.000005041 901340.00000000 02:35:01
    0.000005096 3690088.73000000 17:25:34
    0.000005195 5742059.67276000 17:25:34
    0.000005346 26232253.00000000 12:14:46
    0.000005399 18336729.02389000 05:24:07
    0.000005421 3690036.90000000 04:02:49
    0.000005420 6551660.51661000 00:13:58
    0.000005298 19074599.00000000 11:17:49
    0.000005543 9020386.07252000 09:43:03
    0.000005568 17346204.00000000 08:27:59
    0.000005411 12494522.00000000 07:16:59
    0.000005214 153098984.31255999 06:52:06
    0.000005215 15983681.68744000 06:52:06
    0.000005388 8642198.00000000 05:54:36
    0.000005378 368068387.00000000 05:16:17
    0.000005340 11.37014000 01:09:26
    0.000005340 9363284.51000000 00:49:28
    0.000005266 3799392.09726000 23:56:08
    0.000005275 18957345.97156000 23:55:26
    0.000005447 2389402.00000000 23:05:26
    0.000005215 25193691.33572000 09:39:03
    0.000005216 31840529.14110000 09:39:03
    0.000005330 0.05549000 09:39:03
    0.000005347 90348193.00000000 08:37:01
    0.000005330 4356472.74000000 07:32:57
    0.000005379 19.37000000 03:31:54
    0.000005379 6.02000000 03:31:54
    0.000005380 90566537.42000000 03:31:54
    0.000005380 30374999.99000000 03:31:54
    0.000005380 9359613.39000000 03:31:54
    0.000005379 21015386.61000000 03:31:54
    0.000005513 21015412.00000000 03:31:24
    0.000005250 5904877.00000000 21:25:53
    0.000005310 99462481.41000000 21:16:34
    0.000005310 164809363.24538001 21:16:34
    0.000005363 421672774.27739000 19:43:38
    0.000005364 23898676.36092000 19:43:38
    0.000005562 81825.86169000 19:43:38
    0.000005562 40856685.46517001 13:15:32
    0.000005497 2852593.00000000 01:19:33
    0.000005584 3707313.98000000 01:15:30
    0.000005584 272348554.55685002 01:15:30
    0.000005585 7165765.44315000 01:15:30
    0.000005852 2158089.00000000 00:28:16
    0.000005888 8224550.00000000 17:05:06
    0.000005924 3709198.81000000 12:37:21
    0.000005392 4755398.93486000 10:43:37
    0.000005393 7340719.45114000 10:43:37
    0.000005935 609512.53793000 10:17:24
    0.000005875 12414905.46207000 10:17:24
    0.000005315 3848219.00000000 10:06:05
    0.000005877 238808824.18155000 08:51:15
    0.000005876 11754135.81845000 08:51:15
    0.000005367 1499981.80638000 02:06:59
    0.000005710 18.19362000 02:06:59
    0.000005752 1806708.00000000 21:34:38
    0.000006018 1605489.00000000 21:03:50
    0.000005710 1926426.64000000 18:31:07
    0.000006017 6574604.05380000 13:45:04
    0.000005975 9394876.94620000 13:45:04
    0.000005805 824236.00000000 09:55:04
    0.000005457 2549115.00000000 03:44:01
    0.000005305 1500000.00000000 03:28:10
    0.000007159 129829990.22210000 22:18:54
    0.000007158 4518342.96999000 22:18:54
    ログアウト
    AAA
    ヘルプ
    🙂 🤣 😎 🤗 😛 😉 😜 🤑 🤔 😑 😴 😕 🙃 😲 😇 🙁 😢 😬 😟 😠 🕺 🏃 💪 ✌ 👌 👍 👎 👏 👋 🤝 🍺 🍻 🐋 🐟 🦈 🗽 🚄 ✈ 🛑 🚀 🏦 🌚 ⭐ 🌞 ⚡ 🏆 💰 💲 🔨 ❓ ❗ 💯 🔶 🏁
    ☺
    ログイン または サインアップ してチャット
    24時間
    変化
    -3.51%
    出来高
    60,203,474
    最高値
    0.000005129
    最安値
    0.000004860
    7日間
    変化
    -16.95%
    出来高
    2,472,083,344
    最高値
    0.000005852
    最安値
    0.000004708
    30日間
    変化
    +15.96%
    出来高
    7,351,616,566
    最高値
    0.000007159
    最安値
    0.000003538
    Pepe price rallies 25% as whale demand and futures interest surge
    Key takeaways Pepe has gained 25% this week, including a combined 22% advance over the previous two days. Seven whale transactions worth more than $1 million each occurred Thursday, the highest...
    coinjournal.net
    Aug 21, 2026 08:41
    PEPE Supply on Exchanges Just Took a Massive Hit – What’s Next?
    A drop in PEPE exchange balances has added to bullish expectations despite muted trader interest.
    cryptopotato.com
    Aug 6, 2026 20:02
    PEPE Exchange Outflows Hit Nearly 2-Year High as Whales Accumulate
    Pepe (PEPE) recorded its largest single-day exchange outflow since November 2024, with 4.54 trillion tokens leaving trading platforms, signaling that holders are moving supply away from immediate...
    beincrypto.com
    Aug 6, 2026 04:57
    Meme Coin Based on White House Shooter Conspiracy Rallies 320%
    $HENRY surged 300% after a 2023 Pepe tweet appeared to name the White House shooter, fueling a viral time-travel meme. The post Meme Coin Based on White House Shooter Conspiracy Rallies 320%...
    beincrypto.com
    Apr 27, 2026 16:11
    PEPE surges 4% as market sentiment improves, eyes Key resistance breakout
    Key takeaways Pepe extends gains on Wednesday, stretching its rally from the 50-day EMA. Derivatives data show heightened retail activity as risk-on sentiment returns to the market. Pepe (PEPE) is...
    coinjournal.net
    Apr 22, 2026 11:44
    Why The PEPE Price Could Stage A 55X Rally To Reach New $0.0001 ATH
    The PEPE price has now started to edge back into bullish conversations after the recent inflows into the crypto market. The last time PEPE’s weekly chart printed the kind of structure now...
    newsbtc.com
    Apr 21, 2026 15:30
    Pepe (PEPE) surges 9%, drawing interest from whales
    Key takeaways PEPE is up 9% in the last 24 hours, making it one of the best performers among the top 50 cryptocurrencies by market cap. The rally comes amid renewed interest from whales and retail...
    coinjournal.net
    Apr 16, 2026 07:40
    Murad Says SPX6900 (SPX) Is Primed for a Rally — Is He Right This Time?
    Crypto influencer Murad Mahmudov claims SPX6900 (SPX) is stabilizing at the same market cap level where Dogecoin (DOGE) and Pepe (PEPE) consolidated before their explosive rallies. The...
    beincrypto.com
    Apr 5, 2026 21:36
    The Shiba Inu Of This Cycle: Analyst Shares Why It Is Better To Buy PEPE Now
    In the bull market cycle of 2021-2022, the Shiba Inu meme coin made waves in a way that changed the face of meme coins forever. This came after Dogecoin’s initial 36,000% rally, and Shiba Inu...
    newsbtc.com
    Apr 4, 2026 07:30
    PEPE Explodes by 18% Amid Altcoin Rally, BTC Tapped $74K: Market Watch
    The frog-themed meme coin is today's biggest gainer, followed by TAO, DOT, and BONK.
    cryptopotato.com
    Mar 16, 2026 10:56
    Should PEPE traders brace for volatility as short squeeze potential builds?
    The memecoin market has seen its collective market capitalization drop by 48% over the past year, and 6.9% over the past month, according to CoinMarketCap. According to Glassnode, the memecoin...
    ambcrypto.com
    Mar 7, 2026 18:00
    チャットでコマンドを入力するだけです。 nick1を実際のニックネームに置き換えてください
    • /ignore nick1 チャットユーザーを無視する
    • /unignore nick1 チャットユーザーを無視しない
    • /ignorelist 無視したチャットユーザーを表示する